Time,TemperatureF,DewpointF,PressureIn,WindDirection,WindDirectionDegrees,WindSpeedMPH,WindSpeedGustMPH,Humidity,HourlyPrecipIn,Conditions,Clouds,dailyrainin,SoftwareType,DateUTC
2013-04-08 00:09:00,58.6,43.9,30.00,SSW,202,0.0,2.0,58,0.00,,,0.00,WUHU21623XXSP,2013-04-08 04:09:00,
2013-04-08 00:19:00,58.1,43.9,30.00,SSW,202,2.5,3.6,59,0.00,,,0.00,WUHU21623XXSP,2013-04-08 04:19:00,
2013-04-08 00:29:00,57.7,44.0,30.00,SSW,202,2.7,2.7,60,0.00,,,0.00,WUHU21623XXSP,2013-04-08 04:29:00,
2013-04-08 00:39:00,57.6,43.8,30.00,SSW,202,0.0,1.6,60,0.00,,,0.00,WUHU21623XXSP,2013-04-08 04:39:00,
2013-04-08 00:49:00,57.4,44.1,30.00,SSW,202,2.9,2.9,61,0.00,,,0.00,WUHU21623XXSP,2013-04-08 04:49:00,
2013-04-08 00:59:00,57.4,44.5,30.01,SSW,202,3.1,3.1,62,0.00,,,0.00,WUHU21623XXSP,2013-04-08 04:59:00,
2013-04-08 01:09:00,57.0,45.3,30.01,SSW,202,6.3,6.3,65,0.00,,,0.00,WUHU21623XXSP,2013-04-08 05:09:00,
2013-04-08 01:19:00,56.8,46.0,30.01,SSW,202,4.0,4.0,67,0.00,,,0.00,WUHU21623XXSP,2013-04-08 05:19:00,
2013-04-08 01:29:00,56.5,45.6,30.01,SSW,202,2.7,5.1,67,0.00,,,0.00,WUHU21623XXSP,2013-04-08 05:29:00,
2013-04-08 01:39:00,56.5,45.6,30.02,SSW,202,0.0,2.7,67,0.00,,,0.00,WUHU21623XXSP,2013-04-08 05:39:00,
2013-04-08 01:49:00,55.4,45.7,30.03,NE,45,1.3,2.0,69,0.00,,,0.00,WUHU21623XXSP,2013-04-08 05:49:00,
2013-04-08 01:59:00,56.5,46.0,30.03,NE,45,0.0,0.0,68,0.00,,,0.00,WUHU21623XXSP,2013-04-08 05:59:00,
2013-04-08 02:09:00,56.8,46.0,30.03,NE,45,0.0,0.0,67,0.00,,,0.00,WUHU21623XXSP,2013-04-08 06:09:00,
2013-04-08 02:19:00,56.7,45.4,30.03,NE,45,0.0,0.0,66,0.00,,,0.00,WUHU21623XXSP,2013-04-08 06:19:00,
2013-04-08 02:29:00,56.3,45.0,30.03,NE,45,0.0,0.0,66,0.00,,,0.00,WUHU21623XXSP,2013-04-08 06:29:00,
2013-04-08 02:39:00,55.9,45.5,30.02,NE,45,0.0,0.0,68,0.00,,,0.00,WUHU21623XXSP,2013-04-08 06:39:00,
2013-04-08 02:50:00,55.6,45.4,30.02,NE,45,0.0,0.0,68,0.00,,,0.00,WUHU21623XXSP,2013-04-08 06:50:00,
2013-04-08 03:00:00,55.4,45.0,30.02,NE,45,1.3,1.3,68,0.00,,,0.00,WUHU21623XXSP,2013-04-08 07:00:00,
2013-04-08 03:10:00,55.4,45.0,30.02,ESE,112,0.0,1.3,68,0.00,,,0.00,WUHU21623XXSP,2013-04-08 07:10:00,
2013-04-08 03:20:00,55.2,45.3,30.02,SE,135,0.0,0.0,69,0.00,,,0.00,WUHU21623XXSP,2013-04-08 07:20:00,
2013-04-08 03:30:00,55.2,45.3,30.02,SE,135,0.0,0.0,69,0.00,,,0.00,WUHU21623XXSP,2013-04-08 07:30:00,
2013-04-08 03:40:00,55.2,45.3,30.02,SE,135,0.0,0.0,69,0.00,,,0.00,WUHU21623XXSP,2013-04-08 07:40:00,
2013-04-08 03:50:00,55.2,45.3,30.01,SE,135,0.0,0.0,69,0.00,,,0.00,WUHU21623XXSP,2013-04-08 07:50:00,
2013-04-08 04:00:00,55.2,44.9,30.01,SE,135,0.0,0.0,68,0.00,,,0.00,WUHU21623XXSP,2013-04-08 08:00:00,
2013-04-08 04:10:00,55.2,44.9,30.01,SE,135,0.0,0.0,68,0.00,,,0.00,WUHU21623XXSP,2013-04-08 08:10:00,
2013-04-08 04:20:00,55.2,44.9,30.01,SE,135,0.0,0.0,68,0.00,,,0.00,WUHU21623XXSP,2013-04-08 08:20:00,
2013-04-08 04:30:00,55.2,45.3,30.02,SE,135,0.0,0.0,69,0.00,,,0.00,WUHU21623XXSP,2013-04-08 08:30:00,
2013-04-08 04:40:00,55.0,45.1,30.03,SE,135,0.0,0.0,69,0.00,,,0.00,WUHU21623XXSP,2013-04-08 08:40:00,
2013-04-08 04:50:00,54.7,44.7,30.03,SE,135,0.0,0.0,69,0.00,,,0.00,WUHU21623XXSP,2013-04-08 08:50:00,
2013-04-08 05:00:00,54.5,44.5,30.02,SE,135,0.0,0.0,69,0.00,,,0.00,WUHU21623XXSP,2013-04-08 09:00:00,
2013-04-08 05:10:00,54.5,44.5,30.02,SE,135,0.0,0.0,69,0.00,,,0.00,WUHU21623XXSP,2013-04-08 09:10:00,
2013-04-08 05:20:00,54.5,44.5,30.02,SE,135,0.0,0.0,69,0.00,,,0.00,WUHU21623XXSP,2013-04-08 09:20:00,
2013-04-08 05:30:00,54.3,44.4,30.02,SE,135,0.0,0.0,69,0.00,,,0.00,WUHU21623XXSP,2013-04-08 09:30:00,
2013-04-08 05:40:00,54.3,44.4,30.02,SE,135,0.0,0.0,69,0.00,,,0.00,WUHU21623XXSP,2013-04-08 09:40:00,
2013-04-08 05:50:00,53.8,44.2,30.02,SE,135,0.0,0.0,70,0.00,,,0.00,WUHU21623XXSP,2013-04-08 09:50:00,
2013-04-08 06:00:00,53.4,44.2,30.02,SE,135,0.0,0.0,70,0.00,,,0.00,WUHU21623XXSP,2013-04-08 10:00:00,
2013-04-08 06:10:00,53.2,44.1,30.02,SE,135,0.0,0.0,71,0.00,,,0.00,WUHU21623XXSP,2013-04-08 10:10:00,
2013-04-08 06:20:00,52.9,43.4,30.02,SE,135,0.0,0.0,70,0.00,,,0.00,WUHU21623XXSP,2013-04-08 10:20:00,
2013-04-08 06:30:00,52.7,43.6,30.03,SE,135,0.0,0.0,71,0.00,,,0.00,WUHU21623XXSP,2013-04-08 10:30:00,
2013-04-08 06:40:00,52.5,43.4,30.02,SE,135,0.0,0.0,71,0.00,,,0.00,WUHU21623XXSP,2013-04-08 10:40:00,
2013-04-08 06:50:00,52.3,43.6,30.03,SE,135,0.0,0.0,72,0.00,,,0.00,WUHU21623XXSP,2013-04-08 10:50:00,
2013-04-08 07:00:00,52.3,43.6,30.03,SE,135,0.0,0.0,72,0.00,,,0.00,WUHU21623XXSP,2013-04-08 11:00:00,
2013-04-08 07:10:00,52.2,43.4,30.04,SE,135,0.0,0.0,72,0.00,,,0.00,WUHU21623XXSP,2013-04-08 11:10:00,
2013-04-08 07:20:00,52.2,43.4,30.04,SE,135,0.0,0.0,72,0.00,,,0.00,WUHU21623XXSP,2013-04-08 11:20:00,
2013-04-08 07:30:00,52.3,44.0,30.05,SE,135,0.0,0.0,73,0.00,,,0.00,WUHU21623XXSP,2013-04-08 11:30:00,
2013-04-08 07:40:00,52.5,43.8,30.05,SE,135,0.0,0.0,72,0.00,,,0.00,WUHU21623XXSP,2013-04-08 11:40:00,
2013-04-08 07:50:00,52.7,44.0,30.06,SE,135,0.0,0.0,72,0.00,,,0.00,WUHU21623XXSP,2013-04-08 11:50:00,
2013-04-08 08:00:00,53.2,44.4,30.06,SE,135,0.0,0.0,72,0.00,,,0.00,WUHU21623XXSP,2013-04-08 12:00:00,
2013-04-08 08:10:00,53.8,44.9,30.06,SE,135,0.0,0.0,72,0.00,,,0.00,WUHU21623XXSP,2013-04-08 12:10:00,
2013-04-08 08:20:00,55.2,46.0,30.06,SE,135,0.0,0.0,71,0.00,,,0.00,WUHU21623XXSP,2013-04-08 12:20:00,
2013-04-08 08:30:00,56.8,46.2,30.06,SE,135,0.0,0.0,70,0.00,,,0.00,WUHU21623XXSP,2013-04-08 12:30:00,
2013-04-08 08:40:00,58.6,47.7,30.06,SE,135,0.0,0.0,67,0.00,,,0.00,WUHU21623XXSP,2013-04-08 12:40:00,
2013-04-08 08:50:00,60.1,47.5,30.06,SSE,157,0.9,0.9,63,0.00,,,0.00,WUHU21623XXSP,2013-04-08 12:50:00,
2013-04-08 09:00:00,61.3,47.4,30.06,SSW,202,0.0,1.8,60,0.00,,,0.00,WUHU21623XXSP,2013-04-08 13:00:00,
2013-04-08 09:10:00,62.4,47.4,30.06,SSW,202,2.5,4.5,58,0.00,,,0.00,WUHU21623XXSP,2013-04-08 13:10:00,
2013-04-08 09:20:00,63.1,46.6,30.06,SSW,202,3.8,3.8,55,0.00,,,0.00,WUHU21623XXSP,2013-04-08 13:20:00,
2013-04-08 09:30:00,63.9,47.3,30.05,WSW,247,3.6,3.6,55,0.00,,,0.00,WUHU21623XXSP,2013-04-08 13:30:00,
2013-04-08 09:40:00,64.9,46.7,30.05,SSW,202,0.0,3.4,51,0.00,,,0.00,WUHU21623XXSP,2013-04-08 13:40:00,
2013-04-08 09:50:00,65.5,46.4,30.05,SSW,202,3.1,3.1,49,0.00,,,0.00,WUHU21623XXSP,2013-04-08 13:50:00,
2013-04-08 10:00:00,66.7,46.3,30.05,SSW,202,0.0,3.1,47,0.00,,,0.00,WUHU21623XXSP,2013-04-08 14:00:00,
2013-04-08 10:10:00,67.6,46.0,30.05,SE,135,0.0,2.7,45,0.00,,,0.00,WUHU21623XXSP,2013-04-08 14:10:00,
2013-04-08 10:20:00,68.4,45.9,30.05,SSW,202,1.3,1.3,45,0.00,,,0.00,WUHU21623XXSP,2013-04-08 14:20:00,
2013-04-08 10:30:00,69.4,45.9,30.05,SW,225,0.0,3.6,43,0.00,,,0.00,WUHU21623XXSP,2013-04-08 14:30:00,
2013-04-08 10:41:00,70.5,46.9,30.04,SSW,202,0.0,1.1,43,0.00,,,0.00,WUHU21623XXSP,2013-04-08 14:41:00,
2013-04-08 10:51:00,71.2,46.7,30.04,South,180,3.4,3.8,42,0.00,,,0.00,WUHU21623XXSP,2013-04-08 14:51:00,
2013-04-08 11:01:00,72.1,47.0,30.03,SSW,202,1.3,4.9,41,0.00,,,0.00,WUHU21623XXSP,2013-04-08 15:01:00,
2013-04-08 11:11:00,72.3,46.7,30.03,SW,225,2.0,6.7,40,0.00,,,0.00,WUHU21623XXSP,2013-04-08 15:11:00,
2013-04-08 11:21:00,72.0,47.0,30.04,West,270,2.2,5.1,41,0.00,,,0.00,WUHU21623XXSP,2013-04-08 15:21:00,
2013-04-08 11:31:00,72.3,47.3,30.03,SSE,157,4.7,4.7,41,0.00,,,0.00,WUHU21623XXSP,2013-04-08 15:31:00,
2013-04-08 11:41:00,73.2,47.5,30.03,SW,225,5.4,6.0,40,0.00,,,0.00,WUHU21623XXSP,2013-04-08 15:41:00,
2013-04-08 11:52:00,73.6,47.7,30.03,West,270,2.0,2.7,40,0.00,,,0.00,WUHU21623XXSP,2013-04-08 15:52:00,
2013-04-08 12:02:00,74.1,48.3,30.03,SSW,202,6.5,6.9,40,0.00,,,0.00,WUHU21623XXSP,2013-04-08 16:02:00,
2013-04-08 12:12:00,74.8,49.0,30.02,ENE,67,1.3,6.7,40,0.00,,,0.00,WUHU21623XXSP,2013-04-08 16:12:00,
2013-04-08 12:22:00,75.7,49.0,30.01,SW,225,7.4,7.4,39,0.00,,,0.00,WUHU21623XXSP,2013-04-08 16:22:00,
2013-04-08 12:32:00,76.8,50.0,30.02,SW,225,1.8,7.6,39,0.00,,,0.00,WUHU21623XXSP,2013-04-08 16:32:00,
2013-04-08 12:42:00,76.8,49.2,30.01,South,180,4.3,6.0,38,0.00,,,0.00,WUHU21623XXSP,2013-04-08 16:42:00,
2013-04-08 12:52:00,77.5,50.6,30.00,NNW,337,0.0,6.0,39,0.00,,,0.00,WUHU21623XXSP,2013-04-08 16:52:00,
2013-04-08 13:02:00,77.5,49.9,30.00,SW,225,2.2,6.9,38,0.00,,,0.00,WUHU21623XXSP,2013-04-08 17:02:00,
2013-04-08 13:12:00,77.2,49.5,30.00,SSE,157,7.4,7.4,38,0.00,,,0.00,WUHU21623XXSP,2013-04-08 17:12:00,
2013-04-08 13:22:00,76.8,49.2,29.99,SW,225,3.8,6.9,38,0.00,,,0.00,WUHU21623XXSP,2013-04-08 17:22:00,
2013-04-08 13:32:00,77.2,49.5,29.98,SSW,202,0.0,2.0,38,0.00,,,0.00,WUHU21623XXSP,2013-04-08 17:32:00,
2013-04-08 13:42:00,76.6,49.1,29.98,SW,225,3.4,5.8,38,0.00,,,0.00,WUHU21623XXSP,2013-04-08 17:42:00,
2013-04-08 13:52:00,76.1,48.6,29.98,SSW,202,7.8,7.8,38,0.00,,,0.00,WUHU21623XXSP,2013-04-08 17:52:00,
2013-04-08 14:02:00,76.5,49.7,29.98,SW,225,1.6,5.1,39,0.00,,,0.00,WUHU21623XXSP,2013-04-08 18:02:00,
2013-04-08 14:12:00,76.8,49.2,29.97,SSW,202,2.2,2.2,38,0.00,,,0.00,WUHU21623XXSP,2013-04-08 18:12:00,
2013-04-08 14:22:00,75.7,48.3,29.98,SSE,157,1.3,5.1,38,0.00,,,0.00,WUHU21623XXSP,2013-04-08 18:22:00,
2013-04-08 14:32:00,76.8,49.2,29.97,WSW,247,4.0,8.1,38,0.00,,,0.00,WUHU21623XXSP,2013-04-08 18:32:00,
2013-04-08 14:42:00,77.7,49.2,29.96,SW,225,8.5,8.5,37,0.00,,,0.00,WUHU21623XXSP,2013-04-08 18:42:00,
2013-04-08 14:52:00,78.6,49.3,29.96,SW,225,5.6,8.1,36,0.00,,,0.00,WUHU21623XXSP,2013-04-08 18:52:00,
2013-04-08 15:02:00,78.4,48.3,29.95,West,270,4.5,4.7,35,0.00,,,0.00,WUHU21623XXSP,2013-04-08 19:02:00,
2013-04-08 15:12:00,78.4,49.1,29.95,West,270,1.6,6.3,36,0.00,,,0.00,WUHU21623XXSP,2013-04-08 19:12:00,
2013-04-08 15:22:00,78.1,48.8,29.95,SSE,157,2.2,3.8,36,0.00,,,0.00,WUHU21623XXSP,2013-04-08 19:22:00,
2013-04-08 15:32:00,77.5,48.3,29.95,SW,225,0.0,8.3,36,0.00,,,0.00,WUHU21623XXSP,2013-04-08 19:32:00,
2013-04-08 15:42:00,77.4,48.2,29.95,SSE,157,7.2,7.6,36,0.00,,,0.00,WUHU21623XXSP,2013-04-08 19:42:00,
2013-04-08 15:52:00,77.2,48.0,29.95,SW,225,3.8,3.8,36,0.00,,,0.00,WUHU21623XXSP,2013-04-08 19:52:00,
2013-04-08 16:02:00,76.5,47.4,29.94,SW,225,7.4,7.4,36,0.00,,,0.00,WUHU21623XXSP,2013-04-08 20:02:00,
2013-04-08 16:13:00,76.6,48.3,29.94,WSW,247,6.5,6.9,37,0.00,,,0.00,WUHU21623XXSP,2013-04-08 20:13:00,
2013-04-08 16:23:00,76.8,48.5,29.94,SSW,202,2.9,8.3,37,0.00,,,0.00,WUHU21623XXSP,2013-04-08 20:23:00,
2013-04-08 16:33:00,76.8,48.6,29.94,SW,225,2.5,2.5,37,0.00,,,0.00,WUHU21623XXSP,2013-04-08 20:33:00,
2013-04-08 16:43:00,76.5,48.1,29.93,SSW,202,3.1,3.8,37,0.00,,,0.00,WUHU21623XXSP,2013-04-08 20:43:00,
2013-04-08 16:53:00,75.9,47.7,29.94,WNW,292,2.0,6.5,37,0.00,,,0.00,WUHU21623XXSP,2013-04-08 20:53:00,
2013-04-08 17:03:00,75.4,47.9,29.94,SSW,202,3.1,4.9,38,0.00,,,0.00,WUHU21623XXSP,2013-04-08 21:03:00,
2013-04-08 17:13:00,75.0,47.6,29.94,SSW,202,4.0,7.2,38,0.00,,,0.00,WUHU21623XXSP,2013-04-08 21:13:00,
2013-04-08 17:23:00,74.8,48.2,29.94,SW,225,2.0,7.6,39,0.00,,,0.00,WUHU21623XXSP,2013-04-08 21:23:00,
2013-04-08 17:33:00,74.5,47.9,29.94,SSW,202,3.4,3.4,39,0.00,,,0.00,WUHU21623XXSP,2013-04-08 21:33:00,
2013-04-08 17:43:00,74.1,47.6,29.95,WSW,247,7.2,7.8,39,0.00,,,0.00,WUHU21623XXSP,2013-04-08 21:43:00,
2013-04-08 17:53:00,73.6,47.1,29.95,SSW,202,4.7,7.2,39,0.00,,,0.00,WUHU21623XXSP,2013-04-08 21:53:00,
2013-04-08 18:03:00,73.2,47.5,29.95,WSW,247,0.0,4.9,40,0.00,,,0.00,WUHU21623XXSP,2013-04-08 22:03:00,
2013-04-08 18:13:00,72.9,47.2,29.95,SSW,202,2.9,2.9,40,0.00,,,0.00,WUHU21623XXSP,2013-04-08 22:13:00,
2013-04-08 18:23:00,72.7,47.6,29.95,SSW,202,4.5,4.5,41,0.00,,,0.00,WUHU21623XXSP,2013-04-08 22:23:00,
2013-04-08 18:33:00,72.3,47.3,29.95,SW,225,3.6,3.6,41,0.00,,,0.00,WUHU21623XXSP,2013-04-08 22:33:00,
2013-04-08 18:43:00,72.0,47.0,29.95,SW,225,2.9,3.8,41,0.00,,,0.00,WUHU21623XXSP,2013-04-08 22:43:00,
2013-04-08 18:53:00,71.8,47.4,29.95,SSW,202,1.3,1.3,42,0.00,,,0.00,WUHU21623XXSP,2013-04-08 22:53:00,
2013-04-08 19:03:00,71.4,47.1,29.95,SSW,202,0.0,1.3,42,0.00,,,0.00,WUHU21623XXSP,2013-04-08 23:03:00,
2013-04-08 19:13:00,71.2,46.9,29.95,SW,225,0.0,3.4,42,0.00,,,0.00,WUHU21623XXSP,2013-04-08 23:13:00,
2013-04-08 19:23:00,70.9,47.2,29.95,SSW,202,0.0,2.0,43,0.00,,,0.00,WUHU21623XXSP,2013-04-08 23:23:00,
2013-04-08 19:33:00,70.3,46.7,29.95,SSW,202,0.0,0.0,43,0.00,,,0.00,WUHU21623XXSP,2013-04-08 23:33:00,
2013-04-08 19:43:00,70.0,46.4,29.96,SSW,202,0.0,0.0,43,0.00,,,0.00,WUHU21623XXSP,2013-04-08 23:43:00,
2013-04-08 19:53:00,69.6,46.6,29.96,SSW,202,0.0,0.0,44,0.00,,,0.00,WUHU21623XXSP,2013-04-08 23:53:00,
2013-04-08 20:03:00,69.1,46.1,29.96,SSW,202,0.0,0.0,44,0.00,,,0.00,WUHU21623XXSP,2013-04-09 00:03:00,
2013-04-08 20:13:00,68.7,45.8,29.96,SSW,202,0.0,0.0,44,0.00,,,0.00,WUHU21623XXSP,2013-04-09 00:13:00,
2013-04-08 20:23:00,68.4,46.3,29.96,SSW,202,0.0,0.0,45,0.00,,,0.00,WUHU21623XXSP,2013-04-09 00:23:00,
2013-04-08 20:33:00,68.0,45.8,29.96,SSW,202,2.2,3.4,45,0.00,,,0.00,WUHU21623XXSP,2013-04-09 00:33:00,
2013-04-08 20:43:00,67.8,46.2,29.96,SSW,202,1.3,2.5,46,0.00,,,0.00,WUHU21623XXSP,2013-04-09 00:43:00,
2013-04-08 20:53:00,67.3,45.7,29.97,SSW,202,2.2,2.2,46,0.00,,,0.00,WUHU21623XXSP,2013-04-09 00:53:00,
2013-04-08 21:03:00,67.1,46.1,29.97,SSW,202,2.7,2.9,47,0.00,,,0.00,WUHU21623XXSP,2013-04-09 01:03:00,
2013-04-08 21:13:00,66.9,46.0,29.97,SSW,202,2.7,3.8,47,0.00,,,0.00,WUHU21623XXSP,2013-04-09 01:13:00,
2013-04-08 21:23:00,66.7,46.4,29.97,SSW,202,0.0,2.2,48,0.00,,,0.00,WUHU21623XXSP,2013-04-09 01:23:00,
2013-04-08 21:34:00,66.4,46.1,29.97,SSW,202,2.0,2.0,48,0.00,,,0.00,WUHU21623XXSP,2013-04-09 01:34:00,
2013-04-08 21:44:00,66.2,45.9,29.97,SSW,202,3.1,3.1,48,0.00,,,0.00,WUHU21623XXSP,2013-04-09 01:44:00,
2013-04-08 21:54:00,66.0,45.8,29.98,SSW,202,2.7,2.7,48,0.00,,,0.00,WUHU21623XXSP,2013-04-09 01:54:00,
2013-04-08 22:04:00,66.0,46.3,29.98,SSW,202,2.2,2.7,49,0.00,,,0.00,WUHU21623XXSP,2013-04-09 02:04:00,
2013-04-08 22:14:00,66.0,46.3,29.98,SSW,202,1.8,2.7,49,0.00,,,0.00,WUHU21623XXSP,2013-04-09 02:14:00,
2013-04-08 22:24:00,66.0,46.3,29.98,South,180,2.2,2.2,49,0.00,,,0.00,WUHU21623XXSP,2013-04-09 02:24:00,
2013-04-08 22:34:00,66.0,46.3,29.99,SSW,202,0.0,4.3,49,0.00,,,0.00,WUHU21623XXSP,2013-04-09 02:34:00,
2013-04-08 22:44:00,66.0,46.3,30.00,SSW,202,4.9,4.9,49,0.00,,,0.00,WUHU21623XXSP,2013-04-09 02:44:00,
2013-04-08 22:54:00,66.0,46.9,30.00,SSW,202,5.6,5.6,50,0.00,,,0.00,WUHU21623XXSP,2013-04-09 02:54:00,
2013-04-08 23:04:00,66.2,46.5,30.00,SSW,202,4.9,4.9,49,0.00,,,0.00,WUHU21623XXSP,2013-04-09 03:04:00,
2013-04-08 23:14:00,66.7,47.6,30.00,WSW,247,2.9,4.9,50,0.00,,,0.00,WUHU21623XXSP,2013-04-09 03:14:00,
2013-04-08 23:24:00,66.6,47.4,30.01,SW,225,6.7,7.8,50,0.00,,,0.00,WUHU21623XXSP,2013-04-09 03:24:00,
2013-04-08 23:34:00,66.4,47.3,30.01,South,180,1.6,3.4,50,0.00,,,0.00,WUHU21623XXSP,2013-04-09 03:34:00,
2013-04-08 23:44:00,66.0,47.4,30.01,SW,225,2.0,4.3,51,0.00,,,0.00,WUHU21623XXSP,2013-04-09 03:44:00,
2013-04-08 23:54:00,65.7,47.1,30.01,SSW,202,0.0,2.7,51,0.00,,,0.00,WUHU21623XXSP,2013-04-09 03:54:00,